Regional Weather Roundup
Issued by NWS

Home | Current Version | Previous Version | Text Only | Print | Product List | Glossary Off
Versions: 1 2 3 4 5 6 7 8 9 10 11 12 13 14 15 16 17 18 19 20 21 22 23 24 25 26 27 28 29 30 31 32 33 34 35 36 37 38 39 40 41 42 43 44 45 46 47 48 49 50

000
ASUS43 KDTX 250210
RWRMI
MICHIGAN HOURLY REGIONAL WEATHER ROUNDUP
NATIONAL WEATHER SERVICE DETROIT/PONTIAC MI
900 PM EST WED DEC 24 2014

NOTE: "FAIR" INDICATES FEW OR NO CLOUDS BELOW 12,000 FEET WITH NO
SIGNIFICANT WEATHER AND/OR OBSTRUCTION TO VISIBILITY.

MIZ047>049-052>055-059>063-066>070-074>076-081>083-250300-
SOUTHEAST LOWER MICHIGAN

CITY           SKY/WX    TMP DP  RH WIND       PRES   REMARKS
ADRIAN         LGT RAIN  36  33  89 W15G25    29.46R WCI  27
ALMA           LGT SNOW  33  33 100 W10       29.38R WCI  24
ANN ARBOR      FLURRIES  36  33  89 W21G32    29.39R WCI  25
BAD AXE        FLURRIES  35  35 100 NE10G28   29.17F WCI  27
CARO           CLOUDY    34  33  96 W16       29.28R WCI  24
DETROIT CITY   LGT RAIN  39  34  82 W23G37    29.33R WCI  28
DETROIT        LGT RAIN  37  34  89 W24G32    29.36R WCI  26
FLINT          LGT SNOW  35  32  88 W18       29.34R FOG     WCI  24
GROSSE ILE     DRIZZLE   37  36  93 W21G31    29.36R WCI  27
HILLSDALE      FLURRIES  34  34 100 W17G23    29.45R WCI  24
HOWELL         SNOW      32  32 100 W18       29.36R VSB 1/2 WCI  21

CITY           SKY/WX    TMP DP  RH WIND       PRES   REMARKS
JACKSON        LGT SNOW  33  32  96 W13G21    29.43R FOG     WCI  24
LAMBERTVILLE   CLOUDY    37  34  87 W13G25    29.45R WCI  29
LANSING        LGT SNOW  33  32  96 W14       29.41R FOG     WCI  23
LAPEER         DRIZZLE   36  35  97 W12G22    29.28R WCI  28
MASON          LGT SNOW  32  32  99 W10G18    29.41R WCI  24
MONROE         DRIZZLE   37  36  93 W21G31    29.40R WCI  27
MT. CLEMENS    MIX PCPN  39 N/A N/A W21G29    29.27R WCI  29
PONTIAC        LGT SNOW  34  32  92 W20G30    29.31R FOG     WCI  23
PORT HOPE        N/A     36  34  92 NW12G20   29.25R WCI  28
PORT HURON     CLOUDY    39  39 100 SW8       29.23R WCI  34
TRI CITIES     LGT SNOW  35  32  88 W16       29.33R FOG     WCI  25
TROY           LGT SNOW  38  35  89 W23G30    29.34R WCI  28
SAGINAW HB     LGT SNOW  34  34 100 W16       29.32R WCI  23
$$
MIZ043>046-050>051-056>058-064>065-071>073-077>080-250300-
SOUTHWEST LOWER MICHIGAN

CITY           SKY/WX    TMP DP  RH WIND       PRES   REMARKS
BATTLE CREEK   LGT SNOW  34  32  92 W12       29.47R FOG     WCI  25
BENTON HARBOR  MIX PCPN  37  36  96 W16       29.52R WCI  28
BIG RAPIDS     LGT SNOW  33  33 100 W6        29.38R WCI  28
COLDWATER      FLURRIES  33  33  98 MISG      29.48R
FREMONT        LGT SNOW  33  33  99 SW5       29.42R WCI  28
HOLLAND        LGT RAIN  40  35  83 W10       29.47R WCI  33
GRAND RAPIDS   LGT SNOW  34  32  92 W12       29.44R FOG     WCI  25
IONIA          LGT SNOW  34  33  99 W14G21    29.41R WCI  24
KALAMAZOO      LGT SNOW  34  32  92 SW8       29.48R FOG     WCI  27
LUDINGTON      CLOUDY    37  36  93 NW8       29.42S WCI  31
MARSHALL       LGT SNOW  32  32 100 W9        29.45R WCI  24
MOUNT PLEASANT LGT SNOW  34  33  97 CALM      29.36R
MUSKEGON       LGT RAIN  39  35  86 W13       29.45R WCI  31
SOUTH HAVEN    LGT RAIN  38  36  92 W9        29.49S WCI  32
$$
MIZ016>042-250300-
NORTHERN LOWER MICHIGAN

CITY           SKY/WX    TMP DP  RH WIND       PRES   REMARKS
ALPENA         FLURRIES  33  32  96 NW12      29.25F WCI  24
BEAVER ISLAND  CLOUDY    33  33  96 NW10G17   29.33F WCI  25
BELLAIRE       FLURRIES  36  34  94 NW3       29.34S
CADILLAC       LGT SNOW  33  32  96 W8        29.33S WCI  26
CHARLEVOIX     LGT RAIN  35  35 100 NW12G17   29.39R WCI  26
FRANKFORT      DRIZZLE   36  35  96 NW10      29.40R WCI  28
GAYLORD        LGT SNOW  33  32  96 NW8       29.28F FOG     WCI  26
GRAYLING       FLURRIES  33  33 100 W8        29.29F WCI  26
HARBOR SPRINGS RAIN      34  33  97 W3        29.35R
HOUGHTON LAKE  CLOUDY    33  32  96 NW8       29.30S WCI  26
MANISTEE       CLOUDY    37  34  87 NW10G18   29.41R WCI  30
OSCODA         LGT SNOW  33  33 100 W8        29.29R WCI  26
PELLSTON       LGT RAIN  34  33  96 NW9       29.33F WCI  27
ROGERS CITY    LGT SNOW  35  35 100 NW12      29.31R WCI  26
TRAVERSE CITY  FLURRIES  37  35  92 NW12      29.35F WCI  29
$$
MIZ007>008-015-250300-
EASTERN UPPER MICHIGAN

CITY           SKY/WX    TMP DP  RH WIND       PRES   REMARKS
KINROSS        CLOUDY    36  36 100 NW9       29.29F WCI  29
MACKINAC ISLAN CLOUDY    34  34 100 NW8       29.30F FOG     WCI  27
NEWBERRY       CLOUDY    33  33 100 NW7       29.34F FOG     WCI  27
S. S. MARIE    LGT RAIN  35  33  92 W8        29.30F WCI  29
MUNISING         N/A     35  30  82 N12G21    29.40F WCI  27
$$
MIZ004>006-011>014-085-250300-
CENTRAL UPPER MICHIGAN

CITY           SKY/WX    TMP DP  RH WIND       PRES   REMARKS
MANISTIQUE     CLOUDY    32  32 100 NW10G17   29.37F WCI  24
ESCANABA       CLOUDY    32  27  80 NW9       29.42F WCI  24
MENOMINEE      CLOUDY    34  28  80 NW7       29.44F WCI  28
SAWYER-GWINN   CLOUDY    30  28  93 N10       29.42F WCI  21
$$
MIZ001>003-009>011-084-250300-
WESTERN UPPER MICHIGAN

CITY           SKY/WX    TMP DP  RH WIND       PRES   REMARKS
IRON MOUNTAIN  CLOUDY    31  27  85 NW10      29.43F WCI  22
HOUGHTON       LGT SNOW  32  28  85 NW8       29.45F FOG     WCI  25
COPPER HARBOR    N/A     33  30  88 NE10      29.45F WCI  25
IRONWOOD       CLOUDY    30  30 100 W5        29.48F WCI  25
$$

ABBREVIATIONS USED IN REMARKS
   TC - TEMPERATURE IN CELSIUS
  WCI - WIND CHILL INDEX
   HX - HEAT INDEX
  VSB - VISIBILITY



USA.gov is the U.S. government's official web portal to all federal, state and local government web resources and services.